Total_Precipitation_Accumulation
1.88 1.90 1.57 0.73 0.59 0.29 0.33 0.32 0.52 0.28 0.11 0.08 0.99 0.70 0.87 0.65 0.64 0.56 0.40 0.10 0.00 0.00 0.00 0.00 0.00 0.00 0.00 0.00 0.00 0.00 0.00 0.00 0.00 0.00 0.01 0.01 0.01 0.01 0.01 0.01 0.01 0.01 0.01 0.07 0.17 0.12 0.08 0.06 0.09 0.15 0.16 0.16 0.15 0.17 0.11 0.16 0.14 0.24 0.35 0.43 0.44 0.29 0.29 0.34 0.32 0.20 0.14 0.09 0.17 0.12 0.10 0.19 0.14 0.07 0.04 0.01 0.01 0.04 0.01 0.00 0.00 0.04 0.01 0.00 0.00
1.80 1.50 1.03 0.96 0.73 0.92 0.95 1.41 0.95 0.18 0.10 0.04 1.40 0.94 1.03 0.22 0.74 0.82 0.51 0.28 0.27 0.30 0.19 0.01 0.00 0.00 0.00 0.00 0.00 0.00 0.00 0.00 0.00 0.00 0.00 0.01 0.01 0.01 0.01 0.01 0.00 0.01 0.01 0.02 0.03 0.14 0.11 0.08 0.07 0.08 0.11 0.09 0.17 0.18 0.12 0.26 0.18 0.08 0.14 0.26 0.35 0.38 0.48 0.42 0.35 0.30 0.13 0.11 0.23 0.22 0.26 0.22 0.18 0.10 0.06 0.04 0.01 0.00 0.00 0.00 0.01 0.01 0.01 0.07 0.02
1.93 1.81 1.16 1.03 1.50 1.94 1.49 1.59 0.53 0.19 0.18 0.70 1.52 1.04 0.23 0.02 0.39 0.20 0.18 0.30 0.32 0.33 0.13 0.16 0.13 0.00 0.00 0.00 0.00 0.00 0.01 0.01 0.01 0.01 0.01 0.01 0.01 0.01 0.00 0.00 0.00 0.01 0.01 0.01 0.02 0.04 0.12 0.12 0.07 0.10 0.10 0.15 0.23 0.15 0.07 0.09 0.12 0.14 0.12 0.12 0.18 0.23 0.20 0.27 0.37 0.39 0.29 0.27 0.20 0.20 0.22 0.18 0.19 0.20 0.18 0.07 0.06 0.12 0.01 0.00 0.01 0.01 0.00 0.00 0.00
1.93 1.62 1.82 1.89 2.57 1.91 1.77 1.43 0.77 0.82 1.00 1.12 0.88 0.95 0.19 0.66 0.20 0.09 0.09 0.08 0.07 0.20 0.26 0.05 0.02 0.01 0.00 0.00 0.00 0.00 0.00 0.00 0.01 0.01 0.02 0.01 0.01 0.01 0.01 0.01 0.00 0.01 0.00 0.01 0.02 0.01 0.02 0.06 0.08 0.10 0.11 0.20 0.21 0.16 0.11 0.09 0.08 0.10 0.09 0.10 0.09 0.09 0.11 0.17 0.17 0.36 0.23 0.21 0.18 0.24 0.21 0.21 0.14 0.12 0.12 0.06 0.04 0.03 0.03 0.03 0.02 0.01 0.01 0.01 0.00
1.66 1.60 1.51 2.64 2.01 2.06 1.33 1.34 1.70 1.00 1.07 1.22 1.25 0.54 0.44 0.79 0.74 0.40 0.41 0.28 0.18 0.17 0.13 0.08 0.05 0.04 0.02 0.01 0.01 0.01 0.01 0.01 0.02 0.01 0.02 0.02 0.03 0.03 0.03 0.07 0.06 0.02 0.05 0.02 0.02 0.03 0.06 0.13 0.26 0.17 0.12 0.15 0.18 0.16 0.15 0.11 0.07 0.09 0.07 0.06 0.13 0.06 0.11 0.15 0.15 0.23 0.23 0.26 0.15 0.16 0.19 0.25 0.19 0.13 0.12 0.08 0.06 0.03 0.10 0.38 0.05 0.03 0.02 0.04 0.02
1.50 2.04 2.30 2.89 2.71 2.34 2.02 1.89 2.22 1.52 0.93 0.94 0.75 0.28 0.82 0.83 0.44 0.63 0.44 0.43 0.51 0.36 0.26 0.22 0.09 0.06 0.04 0.09 0.03 0.05 0.07 0.07 0.02 0.05 0.08 0.06 0.10 0.12 0.10 0.05 0.08 0.13 0.22 0.09 0.09 0.12 0.14 0.10 0.09 0.14 0.08 0.12 0.15 0.26 0.14 0.20 0.12 0.15 0.10 0.06 0.09 0.10 0.10 0.07 0.10 0.11 0.12 0.18 0.23 0.35 0.22 0.19 0.12 0.09 0.12 0.11 0.05 0.03 0.04 0.04 0.08 0.05 0.09 0.02 0.01
1.35 0.96 1.80 2.38 1.84 1.49 1.33 1.52 1.31 0.98 0.78 0.86 0.43 0.74 0.48 0.43 0.28 0.66 0.85 0.88 0.59 0.58 0.47 0.16 0.17 0.29 0.58 0.38 0.14 0.14 0.14 0.13 0.19 0.39 0.13 0.11 0.06 0.20 0.20 0.16 0.25 0.30 0.36 0.19 0.24 0.25 0.24 0.28 0.20 0.18 0.20 0.10 0.13 0.24 0.25 0.27 0.18 0.26 0.12 0.20 0.08 0.14 0.39 0.43 0.19 0.14 0.11 0.13 0.13 0.30 0.22 0.22 0.18 0.18 0.07 0.09 0.04 0.05 0.16 0.02 0.05 0.07 0.04 0.07 0.04
2.78 2.11 2.13 2.12 0.96 1.13 1.38 1.83 1.82 1.43 1.02 1.42 1.11 0.74 0.84 0.93 0.90 1.39 1.31 0.73 0.85 0.74 0.16 0.16 0.57 0.65 0.62 0.21 0.20 0.09 0.26 0.15 0.15 0.39 0.24 0.26 0.22 0.31 0.51 0.67 0.86 0.29 0.71 0.43 0.39 0.33 0.41 0.28 0.39 0.36 0.26 0.13 0.13 0.18 0.19 0.23 0.10 0.21 0.19 0.45 0.25 0.13 0.25 0.39 0.28 0.24 0.19 0.28 0.28 0.22 0.16 0.18 0.20 0.14 0.13 0.37 0.15 0.11 0.06 0.08 0.04 0.03 0.03 0.01 0.07
1.55 1.69 1.34 1.12 1.44 1.57 1.98 1.72 1.91 1.13 1.40 1.35 0.83 1.30 1.43 1.06 0.87 0.85 0.70 0.55 0.38 0.66 0.68 0.96 0.71 0.25 0.16 0.16 0.15 0.29 0.26 0.81 0.98 0.47 0.69 0.33 0.15 0.71 0.43 0.27 0.29 0.26 0.33 0.25 0.18 0.14 0.41 0.36 0.22 0.21 0.27 0.06 0.10 0.11 0.04 0.07 0.12 0.32 0.21 0.33 0.60 0.55 0.26 0.51 0.49 0.43 0.28 0.43 0.66 0.46 0.42 0.16 0.20 0.20 0.21 0.10 0.04 0.08 0.05 0.06 0.02 0.02 0.10 0.01 0.03
1.47 1.17 0.99 0.89 1.13 1.51 1.32 1.71 1.79 1.89 1.82 1.24 1.01 1.80 1.30 1.49 1.31 0.67 0.62 0.43 0.27 0.27 0.67 1.03 0.71 0.80 0.20 0.46 0.62 0.51 0.46 0.60 0.21 0.06 0.06 0.07 0.42 0.52 0.42 0.36 0.28 0.26 0.38 0.30 0.29 0.32 0.35 0.15 0.08 0.01 0.01 0.08 0.09 0.11 0.10 0.09 0.13 0.07 0.39 0.65 0.40 0.19 0.28 0.73 0.67 0.57 0.25 0.71 0.34 0.40 0.46 0.36 0.26 0.18 0.07 0.05 0.08 0.03 0.03 0.01 0.02 0.00 0.02 0.01 0.02
1.05 0.94 1.49 1.49 1.65 1.42 1.73 1.93 1.54 1.89 1.88 2.84 1.49 1.67 1.05 0.67 0.74 0.55 0.51 0.27 0.58 0.54 0.47 0.59 0.83 0.81 0.50 0.53 0.98 0.75 0.56 0.32 0.42 0.33 0.10 0.03 0.08 0.34 0.30 0.29 0.28 0.27 0.21 0.15 0.23 0.19 0.15 0.16 0.10 0.02 0.02 0.12 0.40 0.16 0.13 0.17 0.33 0.52 0.14 0.38 0.41 0.40 0.50 0.35 0.37 0.46 0.49 0.28 0.81 0.42 0.57 0.64 0.47 0.34 0.10 0.05 0.06 0.02 0.07 0.08 0.07 0.03 0.04 0.01 0.05
1.41 1.36 1.39 1.53 1.83 1.62 1.39 2.18 2.42 1.54 1.68 1.91 1.59 1.83 0.93 0.68 0.49 0.60 0.38 0.36 0.20 0.20 0.27 0.27 0.35 0.56 0.67 0.54 0.54 0.76 0.25 0.08 0.03 0.10 0.22 0.03 0.15 0.32 0.18 0.23 0.10 0.10 0.05 0.07 0.07 0.17 0.06 0.23 0.31 0.21 0.49 0.19 0.12 0.19 0.39 0.08 0.23 0.30 0.49 0.40 0.39 0.59 0.71 0.45 0.32 0.41 0.30 0.48 0.37 0.48 0.49 0.71 0.70 0.29 0.23 0.12 0.13 0.07 0.09 0.07 0.06 0.06 0.17 0.19 0.15
2.01 1.88 1.70 1.38 1.67 1.55 1.81 2.44 2.40 2.17 1.50 1.47 1.64 1.97 1.59 0.61 0.46 0.34 0.25 0.27 0.14 0.18 0.12 0.10 0.20 0.21 0.27 0.53 0.65 0.23 0.03 0.02 0.02 0.02 0.02 0.03 0.04 0.04 0.09 0.25 0.20 0.31 0.06 0.07 0.04 0.08 0.14 0.27 0.50 0.62 0.29 0.11 0.18 0.35 0.29 0.04 0.07 0.07 0.21 0.41 0.09 0.48 0.44 0.50 0.92 0.90 0.60 0.34 0.22 0.27 0.46 0.47 1.02 0.84 0.33 0.44 0.64 0.70 0.37 0.13 0.06 0.12 0.11 0.07 0.04
1.00 1.24 0.94 1.17 1.15 1.24 1.46 1.77 1.70 1.78 1.75 1.65 1.47 1.00 0.83 0.85 0.71 0.39 0.45 0.28 0.21 0.09 0.17 0.33 0.68 0.42 0.47 0.68 0.14 0.05 0.02 0.03 0.01 0.02 0.01 0.02 0.04 0.03 0.05 0.06 0.09 0.08 0.09 0.20 0.19 0.24 0.53 0.60 0.49 0.49 0.45 0.25 0.20 0.10 0.13 0.42 0.24 0.22 0.34 0.56 0.40 0.09 0.18 0.55 0.73 0.86 1.40 1.28 1.36 0.67 0.48 0.33 0.24 0.41 0.98 0.78 0.70 0.53 0.48 0.50 0.65 0.54 0.34 0.26 0.56
1.10 1.11 0.95 0.71 0.85 1.16 1.19 1.13 1.11 1.60 1.90 1.91 2.13 0.93 0.58 0.59 0.51 0.49 0.49 0.78 0.32 0.39 0.20 0.05 0.07 0.07 0.05 0.11 0.25 0.08 0.04 0.11 0.05 0.06 0.05 0.02 0.02 0.02 0.05 0.11 0.07 0.12 0.14 0.16 0.36 0.27 0.24 0.27 0.37 0.32 0.26 0.19 0.11 0.14 0.14 0.15 0.29 0.47 0.42 0.59 0.27 0.21 0.30 0.20 0.43 0.54 0.46 0.57 0.52 0.92 1.00 1.09 0.88 0.96 1.24 0.80 0.53 0.50 0.47 1.11 1.19 0.99 0.69 0.25 0.35
0.78 0.88 1.18 0.93 0.63 0.72 1.18 1.37 1.18 1.22 1.20 1.27 1.27 1.23 0.91 0.89 0.58 0.44 0.71 0.47 0.40 0.36 0.33 0.17 0.16 0.18 0.10 0.12 0.08 0.08 0.05 0.03 0.03 0.01 0.02 0.02 0.03 0.12 0.33 0.10 0.06 0.06 0.05 0.20 0.09 0.13 0.14 0.22 0.25 0.13 0.15 0.23 0.23 0.11 0.16 0.35 0.36 0.31 0.40 0.26 0.36 0.24 0.22 0.22 0.34 0.24 0.30 0.67 0.58 0.59 0.48 0.39 0.80 0.75 0.39 0.82 0.81 0.43 0.52 0.45 0.52 0.49 0.49 0.45 0.18
0.10 0.50 0.95 1.20 0.96 0.79 0.81 1.03 1.59 1.17 1.09 1.15 1.17 1.36 1.18 0.73 0.42 0.43 0.28 0.33 0.31 0.44 0.88 0.19 0.22 0.20 0.21 0.05 0.07 0.03 0.03 0.03 0.04 0.02 0.02 0.02 0.04 0.05 0.07 0.29 0.31 0.12 0.06 0.02 0.04 0.08 0.14 0.17 0.28 0.31 0.24 0.32 0.24 0.22 0.18 0.19 0.41 0.45 0.39 0.25 0.46 0.23 0.49 0.27 0.21 0.32 0.44 0.34 0.17 0.26 0.39 0.35 0.22 0.42 0.57 0.20 0.71 0.87 0.90 0.81 0.32 0.13 0.41 0.23 0.19
0.13 0.12 0.13 0.48 1.53 1.24 0.96 0.73 0.94 0.83 0.93 0.95 1.14 1.24 1.28 1.48 1.26 1.84 0.76 1.16 0.66 0.73 0.62 0.44 0.67 0.67 0.28 0.26 0.40 1.13 0.75 0.22 0.17 0.11 0.05 0.02 0.07 0.10 0.90 0.42 0.12 0.15 0.21 0.07 0.07 0.03 0.04 0.02 0.10 0.33 0.45 0.33 0.10 0.08 0.04 0.14 0.11 0.15 0.29 0.49 0.16 0.14 0.39 0.21 0.15 0.07 0.22 0.25 0.53 0.44 0.29 0.36 0.77 0.40 0.30 0.45 0.30 0.44 0.29 0.56 0.28 0.44 0.64 0.14 0.13
0.19 0.19 0.21 0.36 0.54 0.85 1.05 1.19 1.03 1.32 1.24 1.13 1.05 1.30 1.21 1.11 0.91 0.78 1.60 0.43 0.25 0.26 0.25 0.48 0.82 0.63 0.25 0.35 0.10 0.68 0.47 0.30 0.08 0.06 0.06 0.04 0.09 0.09 0.08 0.31 0.28 0.23 0.17 0.15 0.14 0.12 0.07 0.07 0.05 0.19 0.32 0.44 0.10 0.08 0.08 0.29 0.25 0.39 0.30 0.22 0.57 0.30 0.53 0.36 0.68 0.41 0.55 0.70 0.75 0.67 0.97 1.01 1.17 1.07 0.69 0.29 0.48 0.45 0.52 0.69 0.83 0.41 0.35 0.33 0.57
0.14 0.24 0.20 0.37 0.15 0.67 0.40 0.61 0.74 0.69 0.76 0.70 1.07 1.60 1.75 1.26 1.15 1.23 1.18 1.18 0.79 0.57 0.54 0.50 0.58 0.65 0.93 0.53 0.15 0.21 0.09 0.06 0.04 0.05 0.06 0.26 0.13 0.44 0.19 1.20 0.63 0.54 0.19 0.29 0.54 0.18 0.20 0.32 0.32 0.11 0.10 0.14 0.12 0.08 0.10 0.19 0.31 0.34 0.41 0.51 0.31 0.64 0.28 0.26 0.31 0.27 0.34 0.26 0.58 0.65 0.66 0.49 0.77 0.73 0.78 0.62 0.51 0.43 0.56 0.79 0.62 0.85 0.64 0.41 0.58
0.33 0.32 0.10 0.10 0.18 0.32 0.59 0.56 0.44 0.33 0.48 0.52 0.49 0.64 1.12 1.51 1.38 1.31 1.38 1.28 1.00 0.77 0.83 0.81 0.80 0.43 0.40 0.71 1.41 1.23 0.39 0.48 0.33 0.14 0.08 0.13 0.25 0.24 0.68 0.90 0.69 0.26 0.28 0.54 0.38 0.34 1.23 0.51 0.47 0.28 0.24 0.12 0.23 0.26 0.11 0.11 0.16 0.57 0.27 0.58 0.41 0.46 0.26 0.59 0.42 0.14 0.45 0.36 0.23 0.31 0.61 0.98 0.98 0.68 0.35 0.60 0.46 0.52 0.45 0.50 0.61 0.40 0.47 0.54 0.34
0.24 0.15 0.22 0.14 0.23 0.19 0.13 0.38 0.57 0.47 0.45 0.52 0.44 0.37 0.52 0.64 0.75 0.82 0.90 0.79 0.63 0.78 0.82 0.83 0.82 0.75 0.41 0.42 0.42 0.28 0.18 0.31 0.38 0.17 0.09 0.07 0.10 0.09 0.17 0.14 0.13 0.12 0.13 0.24 0.28 0.34 0.29 0.19 0.14 0.16 0.14 0.30 0.62 0.60 0.89 0.51 0.45 0.52 0.87 0.33 0.28 0.23 0.36 0.50 0.45 0.58 0.33 0.71 0.53 0.36 0.25 0.32 0.81 0.60 0.48 0.28 0.41 0.40 0.46 0.60 0.53 0.48 0.39 0.45 0.40
0.28 0.20 0.43 0.38 0.23 0.16 0.18 0.14 0.14 0.28 0.40 0.40 0.58 0.66 0.50 0.41 0.43 0.69 0.69 0.62 0.59 0.46 0.49 0.57 0.62 0.73 0.43 0.25 0.27 0.28 0.28 0.42 0.22 0.25 0.20 0.12 0.06 0.08 0.07 0.17 0.17 0.48 0.39 0.28 0.24 0.31 0.46 0.36 0.34 0.24 0.31 0.33 0.59 0.34 0.27 0.33 0.32 0.54 0.33 0.54 0.39 0.56 0.43 0.34 0.46 0.41 0.58 0.46 0.48 0.56 0.52 0.67 0.52 0.40 0.58 0.46 0.40 0.67 0.50 0.47 0.55 0.62 0.49 0.42 0.42
0.39 0.22 0.15 0.26 0.23 0.13 0.13 0.07 0.07 0.10 0.20 0.23 0.30 0.63 0.50 0.57 0.54 0.38 0.44 0.52 0.55 0.40 0.40 0.40 0.44 0.46 0.66 0.48 0.32 0.33 0.28 0.26 0.26 0.16 0.12 0.13 0.09 0.12 0.19 0.17 0.15 0.40 0.17 0.88 0.51 0.28 0.12 0.36 0.20 0.31 0.30 0.58 0.36 0.52 0.35 0.44 0.40 0.29 0.22 0.34 0.39 0.42 0.40 0.42 0.31 0.41 0.34 0.56 0.62 0.62 0.49 0.34 0.50 0.36 0.20 0.33 0.35 0.78 0.48 0.50 0.38 0.52 0.47 0.40 0.35
0.48 0.39 0.32 0.17 0.10 0.09 0.11 0.10 0.07 0.11 0.12 0.22 0.24 0.31 0.43 0.29 0.36 0.46 0.38 0.42 0.44 0.58 0.56 0.45 0.64 0.47 0.40 0.27 0.29 0.25 0.21 0.21 0.21 0.17 0.16 0.15 0.15 0.12 0.13 0.14 0.12 0.15 0.21 0.22 0.26 0.32 0.26 0.23 0.09 0.28 0.29 0.35 0.20 0.21 0.33 0.30 0.26 0.35 0.44 0.32 0.39 0.51 0.45 0.54 0.59 0.25 0.40 0.19 0.51 0.33 0.46 0.34 0.59 0.35 0.27 0.39 0.54 0.44 0.32 0.60 0.42 0.43 0.51 0.45 0.41
0.30 0.13 0.08 0.08 0.07 0.06 0.08 0.06 0.09 0.08 0.15 0.28 0.35 0.40 0.43 0.34 0.47 0.63 0.33 0.32 0.41 0.55 0.53 0.41 0.35 0.30 0.29 0.29 0.35 0.30 0.19 0.18 0.15 0.16 0.17 0.20 0.22 0.20 0.17 0.16 0.16 0.20 0.25 0.29 0.21 0.23 0.21 0.30 0.36 0.45 0.37 0.41 0.28 0.44 0.46 0.36 0.24 0.26 0.35 0.43 0.54 0.49 0.35 0.36 0.42 0.45 0.48 0.32 0.45 0.42 0.63 0.33 0.25 0.28 0.45 0.44 0.33 0.47 0.32 0.43 0.29 0.40 0.34 0.45 0.37
0.45 0.34 0.21 0.21 0.19 0.09 0.08 0.11 0.35 0.41 0.34 0.41 0.32 0.29 0.32 0.29 0.51 0.51 0.49 0.65 0.74 0.62 0.59 0.84 0.59 0.37 0.42 0.37 0.46 0.37 0.48 0.45 0.35 0.14 0.14 0.15 0.15 0.23 0.23 0.15 0.12 0.20 0.38 0.39 0.31 0.39 0.45 0.43 0.36 0.43 0.28 0.43 0.50 0.33 0.33 0.39 0.44 0.47 0.50 0.58 0.37 0.26 0.33 0.33 0.22 0.33 0.52 0.31 0.32 0.54 0.44 0.61 0.35 0.58 0.77 0.52 0.28 0.19 0.15 0.47 0.33 0.22 0.31 0.38 0.43
0.46 0.40 0.32 0.27 0.22 0.22 0.30 0.17 0.13 0.09 0.24 0.52 0.50 0.57 0.40 0.21 0.28 0.56 0.53 0.62 0.57 0.82 0.79 0.80 0.65 0.74 0.71 1.39 0.85 0.57 0.48 0.33 1.33 1.48 0.87 0.74 0.56 0.33 0.26 0.20 0.17 0.22 0.32 0.34 0.39 0.34 0.57 0.47 0.40 0.53 0.67 0.99 0.87 0.74 0.74 0.67 0.50 0.52 0.65 0.57 0.48 0.33 0.35 0.39 0.31 0.56 0.40 0.40 0.46 0.36 0.39 0.30 0.40 0.31 0.25 0.36 0.23 0.31 0.22 0.21 0.22 0.37 0.34 0.39 0.42
0.28 0.30 0.32 0.28 0.20 0.14 0.12 0.16 0.14 0.20 0.32 0.40 0.35 0.37 0.64 0.54 0.39 0.47 0.49 0.56 0.60 0.69 0.61 0.58 0.60 0.71 0.62 0.72 0.61 0.77 1.42 0.90 0.77 0.74 0.52 0.74 1.12 1.37 0.81 0.46 0.41 0.34 0.26 0.27 0.41 0.69 0.69 0.56 0.58 0.81 1.16 0.92 0.77 0.75 0.67 0.69 0.67 0.54 0.57 0.46 0.43 0.40 0.48 0.51 0.50 0.40 0.40 0.30 0.27 0.29 0.43 0.30 0.37 0.38 0.26 0.39 0.57 0.50 0.41 0.16 0.24 0.23 0.37 0.46 0.40
0.25 0.22 0.20 0.21 0.21 0.21 0.22 0.16 0.09 0.18 0.15 0.18 0.24 0.27 0.21 0.17 0.28 0.40 0.61 0.49 0.32 0.24 0.33 0.58 0.59 0.53 0.54 0.59 0.48 0.67 0.93 1.04 0.57 0.43 0.42 0.47 0.35 0.44 0.72 0.70 0.85 0.80 0.70 0.62 0.56 0.48 0.63 0.76 0.62 0.99 0.88 0.97 0.87 0.92 0.97 0.62 0.67 0.65 0.60 0.48 0.48 0.45 0.43 0.39 0.41 0.34 0.34 0.31 0.46 0.43 0.59 0.39 0.39 0.36 0.30 0.26 0.31 0.33 0.43 0.38 0.52 0.45 0.37 0.56 0.48
0.18 0.20 0.20 0.20 0.17 0.17 0.16 0.17 0.17 0.16 0.13 0.20 0.19 0.23 0.27 0.34 0.13 0.14 0.18 0.28 0.28 0.25 0.30 0.34 0.38 0.35 0.30 0.34 0.38 0.46 0.57 0.52 0.48 0.46 0.37 0.44 0.57 0.66 0.80 0.99 0.83 0.85 0.81 0.96 0.92 0.81 0.53 0.47 0.50 0.54 0.61 0.70 0.65 0.74 0.70 0.71 0.77 0.73 0.71 0.62 0.55 0.45 0.44 0.40 0.38 0.29 0.26 0.36 0.34 0.28 0.34 0.32 0.37 0.38 0.41 0.27 0.30 0.33 0.38 0.37 0.35 0.44 0.46 0.36 0.49
0.20 0.18 0.16 0.14 0.15 0.13 0.10 0.05 0.03 0.04 0.07 0.13 0.19 0.24 0.27 0.30 0.30 0.19 0.18 0.21 0.23 0.24 0.25 0.35 0.45 0.40 0.30 0.25 0.29 0.42 0.59 0.51 0.43 0.46 0.54 0.51 0.64 0.54 0.64 0.68 0.72 0.73 0.76 0.83 0.76 0.65 0.62 0.65 0.68 0.52 0.59 0.66 0.63 0.70 0.76 0.71 0.75 0.63 0.58 0.58 0.57 0.61 0.48 0.43 0.40 0.42 0.51 0.42 0.37 0.33 0.35 0.39 0.35 0.46 0.41 0.36 0.35 0.40 0.56 0.41 0.50 0.46 0.46 0.43 0.33
0.11 0.12 0.14 0.13 0.11 0.09 0.08 0.10 0.04 0.03 0.03 0.04 0.06 0.09 0.14 0.15 0.20 0.19 0.19 0.14 0.18 0.17 0.19 0.24 0.29 0.36 0.33 0.29 0.29 0.36 0.44 0.52 0.44 0.45 0.39 0.40 0.60 0.63 0.75 0.90 0.86 0.89 0.93 0.89 0.74 0.82 0.66 0.64 0.66 0.60 0.62 0.75 0.90 0.78 0.79 0.75 0.81 0.82 0.74 0.69 0.60 0.46 0.45 0.53 0.52 0.58 0.56 0.42 0.39 0.42 0.39 0.43 0.51 0.46 0.43 0.44 0.39 0.38 0.33 0.38 0.35 0.46 0.41 0.41 0.47
0.08 0.09 0.11 0.11 0.10 0.08 0.07 0.06 0.04 0.03 0.02 0.03 0.04 0.07 0.11 0.13 0.18 0.17 0.17 0.14 0.15 0.27 0.19 0.22 0.23 0.33 0.36 0.34 0.35 0.38 0.44 0.45 0.52 0.48 0.39 0.42 0.52 0.53 0.62 0.73 0.68 0.83 0.95 1.28 0.84 0.90 0.96 0.80 0.75 0.78 0.82 0.83 1.00 0.91 0.82 0.85 0.85 0.83 0.92 0.90 0.79 0.67 0.62 0.54 0.62 0.78 0.97 0.77 0.70 0.70 0.60 0.61 0.49 0.62 0.64 0.74 0.69 0.70 0.60 0.59 0.60 0.54 0.66 0.51 0.50
0.07 0.08 0.10 0.09 0.08 0.06 0.05 0.04 0.05 0.04 0.04 0.04 0.05 0.06 0.09 0.12 0.14 0.18 0.21 0.20 0.21 0.22 0.28 0.37 0.34 0.31 0.67 0.56 0.43 0.39 0.45 0.55 0.52 0.56 0.62 0.63 0.72 0.93 0.83 1.26 0.97 0.88 0.81 0.83 0.79 0.80 0.78 0.98 1.13 0.88 0.80 0.86 0.86 0.84 0.85 0.78 0.76 0.75 0.80 0.90 0.90 0.78 0.73 0.64 0.55 0.50 0.59 0.64 0.64 0.60 0.60 0.72 0.83 0.74 0.72 0.74 0.63 0.59 0.65 0.56 0.60 0.53 0.54 0.66 0.44
0.07 0.06 0.06 0.06 0.05 0.04 0.03 0.03 0.04 0.05 0.05 0.04 0.04 0.04 0.06 0.08 0.10 0.15 0.18 0.22 0.24 0.27 0.30 0.34 0.35 0.32 0.38 0.39 0.43 0.45 0.52 0.69 0.90 1.05 0.82 0.71 0.72 0.72 1.28 1.17 1.05 1.22 0.95 0.94 0.98 0.92 0.86 0.97 0.86 0.77 0.73 0.73 0.74 0.72 0.70 0.71 0.60 0.55 0.71 0.75 0.77 0.71 0.63 0.59 0.77 0.61 0.83 0.69 0.73 0.70 0.67 0.75 0.76 0.76 0.79 0.71 0.80 0.95 1.02 0.98 0.74 0.63 0.48 0.48 0.55
0.27 0.44 0.73 0.65 0.29 0.42 0.16 0.07 0.05 0.04 0.03 0.03 0.03 0.03 0.04 0.06 0.06 0.07 0.11 0.15 0.20 0.24 0.31 0.44 0.25 0.50 0.46 0.47 0.50 0.51 0.49 0.52 0.54 0.50 0.63 0.57 0.65 1.05 0.91 0.92 0.86 0.95 1.34 1.23 1.18 1.11 1.10 1.06 1.27 1.07 0.99 0.85 0.99 0.82 0.86 0.79 0.91 0.67 0.59 0.65 0.74 0.79 0.86 0.67 0.59 0.56 0.52 0.54 0.52 0.66 0.61 0.47 0.55 0.55 0.60 0.62 0.65 0.60 0.61 0.67 0.60 0.74 0.54 0.43 0.48
0.14 0.08 0.16 0.07 0.08 0.06 0.07 0.08 0.09 0.05 0.21 0.03 0.03 0.05 0.06 0.06 0.04 0.04 0.07 0.14 0.15 0.19 0.37 0.34 0.22 0.31 0.46 0.60 0.50 0.62 0.66 0.54 0.55 0.43 0.39 0.42 0.63 0.57 0.60 0.56 0.80 0.71 0.86 0.75 1.00 1.42 1.42 1.83 1.26 1.04 0.99 1.14 0.91 1.09 0.82 0.79 0.70 0.69 0.76 0.70 0.69 0.78 0.82 0.89 0.99 0.74 0.61 0.59 0.61 0.60 0.59 0.69 0.49 0.57 0.57 0.54 0.52 0.79 0.62 0.60 0.69 0.61 0.55 0.48 0.47
0.12 0.09 0.06 0.05 0.05 0.08 0.11 0.12 0.09 0.05 0.06 0.06 0.22 0.11 0.07 0.07 0.04 0.05 0.06 0.10 0.12 0.18 0.21 0.37 0.38 0.46 0.57 0.50 0.50 0.46 0.44 0.60 0.62 0.55 0.58 0.63 0.52 0.62 1.11 1.06 1.18 1.02 0.92 0.78 0.71 0.78 0.79 0.78 0.81 0.81 0.85 0.73 0.77 0.69 0.67 0.65 0.84 0.80 0.75 0.76 0.69 0.64 0.81 0.86 0.88 0.76 0.66 0.63 0.60 0.60 0.56 0.57 0.54 0.47 0.58 0.59 0.58 0.49 0.53 0.59 0.61 0.56 0.55 0.54 0.51
0.13 0.07 0.06 0.05 0.06 0.07 0.07 0.06 0.07 0.09 0.07 0.10 0.09 0.07 0.07 0.07 0.13 0.25 0.06 0.03 0.05 0.08 0.14 0.28 0.42 0.46 0.64 0.58 0.64 0.53 0.52 0.71 0.71 0.80 1.11 0.84 1.04 0.70 0.50 0.58 0.63 0.64 0.69 0.74 0.71 0.72 0.64 1.00 1.06 0.93 0.85 0.64 0.56 0.51 0.51 0.49 0.61 0.78 0.71 0.81 0.79 0.71 0.80 0.96 0.78 0.86 0.83 0.74 0.71 0.75 0.53 0.41 0.44 0.52 0.52 0.46 0.54 0.54 0.43 0.57 0.45 0.59 0.50 0.42 0.46
0.22 0.10 0.07 0.06 0.06 0.07 0.06 0.07 0.10 0.18 0.18 0.16 0.15 0.20 0.16 0.09 0.13 0.08 0.06 0.08 0.07 0.08 0.07 0.14 0.21 0.32 0.38 0.46 0.49 0.45 0.45 0.50 0.51 0.51 0.51 0.49 0.58 0.53 0.73 0.50 0.53 0.59 0.62 0.72 0.79 0.72 0.70 0.70 0.72 0.79 0.79 0.75 0.61 0.53 0.50 0.55 0.57 0.44 0.49 0.63 0.66 0.72 0.75 0.84 0.89 0.93 0.88 0.73 0.59 0.55 0.50 0.67 0.51 0.52 0.60 0.52 0.49 0.50 0.46 0.41 0.46 0.51 0.42 0.40 0.37
0.15 0.10 0.08 0.12 0.10 0.07 0.10 0.10 0.13 0.13 0.21 0.19 0.19 0.12 0.13 0.12 0.08 0.08 0.06 0.06 0.06 0.05 0.09 0.27 0.27 0.36 0.40 0.43 0.39 0.38 0.42 0.47 0.49 0.50 0.46 0.40 0.45 0.39 0.45 0.62 0.76 0.72 0.79 0.95 0.86 0.69 0.74 0.70 0.72 0.73 0.80 0.84 0.74 0.63 0.57 0.65 0.67 0.57 0.66 0.72 0.75 0.66 0.68 0.67 0.78 0.82 0.70 0.63 0.62 0.58 0.61 0.58 0.49 0.44 0.36 0.40 0.51 0.44 0.54 0.47 0.41 0.42 0.41 0.38 0.40
0.13 0.11 0.11 0.14 0.17 0.25 0.23 0.28 0.24 0.16 0.13 0.20 0.24 0.26 0.19 0.34 0.29 0.16 0.14 0.15 0.14 0.17 0.12 0.09 0.11 0.13 0.16 0.21 0.28 0.32 0.35 0.38 0.40 0.46 0.50 0.59 0.47 0.40 0.36 0.39 0.46 0.64 0.81 0.90 0.78 0.80 0.74 0.73 0.70 0.86 0.87 1.10 1.00 0.90 0.76 0.83 0.79 0.77 0.70 0.71 0.67 0.75 0.73 0.66 0.65 0.63 0.63 0.59 0.52 0.55 0.52 0.42 0.41 0.38 0.35 0.36 0.39 0.44 0.37 0.40 0.46 0.44 0.41 0.41 0.38
0.31 0.29 0.30 0.36 0.47 0.41 0.34 0.26 0.18 0.18 0.19 0.21 0.22 0.18 0.18 0.18 0.17 0.14 0.12 0.13 0.09 0.05 0.05 0.06 0.08 0.06 0.05 0.07 0.12 0.19 0.26 0.32 0.31 0.40 0.35 0.40 0.51 0.45 0.45 0.47 0.48 0.52 0.61 0.73 0.75 0.72 0.70 0.71 0.71 0.70 0.73 0.80 0.82 0.82 0.85 0.85 0.88 0.93 0.91 0.87 0.86 0.92 0.87 0.76 0.69 0.59 0.50 0.41 0.39 0.47 0.46 0.40 0.37 0.37 0.34 0.33 0.37 0.40 0.36 0.35 0.39 0.41 0.41 0.37 0.37
0.43 0.39 0.41 0.34 0.26 0.23 0.23 0.20 0.17 0.18 0.22 0.27 0.24 0.21 0.24 0.24 0.19 0.15 0.17 0.17 0.14 0.10 0.10 0.09 0.08 0.05 0.04 0.02 0.05 0.10 0.13 0.18 0.23 0.24 0.27 0.31 0.36 0.41 0.44 0.48 0.52 0.57 0.62 0.64 0.64 0.61 0.62 0.70 0.72 0.72 0.76 0.77 0.79 0.82 0.92 0.90 0.88 0.94 1.00 0.99 0.99 0.92 0.81 0.75 0.68 0.56 0.48 0.41 0.36 0.47 0.51 0.52 0.52 0.46 0.39 0.32 0.33 0.35 0.37 0.39 0.40 0.38 0.36 0.35 0.36
0.45 0.36 0.27 0.24 0.20 0.21 0.23 0.23 0.23 0.23 0.33 0.31 0.24 0.23 0.27 0.38 0.36 0.25 0.18 0.19 0.15 0.11 0.11 0.09 0.08 0.07 0.04 0.04 0.03 0.03 0.05 0.09 0.13 0.17 0.21 0.23 0.28 0.34 0.36 0.39 0.45 0.51 0.60 0.64 0.58 0.53 0.55 0.58 0.60 0.64 0.69 0.72 0.80 0.93 1.01 0.94 0.90 0.92 0.90 0.88 0.80 0.73 0.69 0.60 0.51 0.43 0.38 0.39 0.45 0.52 0.47 0.48 0.45 0.43 0.37 0.29 0.26 0.29 0.33 0.37 0.34 0.39 0.38 0.35 0.36
0.29 0.26 0.25 0.25 0.34 0.22 0.22 0.21 0.22 0.24 0.26 0.21 0.24 0.45 0.43 0.27 0.22 0.17 0.18 0.25 0.31 0.21 0.13 0.13 0.11 0.11 0.08 0.06 0.05 0.06 0.05 0.05 0.07 0.11 0.14 0.16 0.21 0.29 0.36 0.38 0.39 0.42 0.48 0.56 0.58 0.51 0.48 0.50 0.52 0.55 0.60 0.61 0.61 0.65 0.72 0.82 0.93 0.99 0.93 0.80 0.74 0.73 0.72 0.58 0.44 0.38 0.34 0.42 0.51 0.53 0.48 0.46 0.51 0.51 0.43 0.27 0.26 0.28 0.34 0.35 0.35 0.30 0.34 0.29 0.36
0.27 0.23 0.19 0.17 0.16 0.18 0.18 0.20 0.23 0.21 0.17 0.19 0.22 0.21 0.15 0.13 0.16 0.20 0.24 0.30 0.28 0.18 0.09 0.04 0.04 0.06 0.08 0.07 0.07 0.08 0.09 0.09 0.08 0.07 0.08 0.11 0.14 0.18 0.25 0.32 0.36 0.37 0.43 0.50 0.54 0.51 0.44 0.44 0.46 0.46 0.48 0.53 0.60 0.63 0.62 0.66 0.77 0.88 0.92 0.84 0.76 0.70 0.59 0.49 0.43 0.38 0.37 0.43 0.56 0.63 0.58 0.57 0.55 0.51 0.48 0.38 0.33 0.31 0.33 0.37 0.30 0.25 0.23 0.26 0.31
0.29 0.26 0.24 0.19 0.16 0.16 0.18 0.17 0.14 0.12 0.13 0.14 0.13 0.10 0.09 0.10 0.12 0.16 0.22 0.22 0.12 0.04 0.02 0.02 0.02 0.02 0.03 0.05 0.07 0.09 0.10 0.11 0.14 0.15 0.14 0.10 0.09 0.10 0.13 0.20 0.30 0.36 0.39 0.45 0.49 0.49 0.47 0.41 0.39 0.41 0.41 0.43 0.49 0.56 0.61 0.66 0.74 0.85 0.94 0.93 0.80 0.65 0.57 0.51 0.46 0.43 0.38 0.41 0.47 0.47 0.50 0.52 0.47 0.47 0.47 0.46 0.38 0.32 0.32 0.35 0.31 0.27 0.30 0.29 0.30
0.31 0.27 0.22 0.19 0.18 0.18 0.16 0.15 0.13 0.10 0.06 0.06 0.05 0.06 0.07 0.09 0.11 0.15 0.17 0.12 0.07 0.04 0.02 0.01 0.01 0.01 0.01 0.01 0.02 0.03 0.05 0.07 0.10 0.12 0.15 0.18 0.16 0.14 0.14 0.17 0.23 0.31 0.36 0.42 0.44 0.43 0.44 0.43 0.38 0.36 0.38 0.38 0.40 0.44 0.51 0.61 0.70 0.79 0.91 0.93 0.82 0.67 0.58 0.52 0.48 0.47 0.46 0.49 0.53 0.50 0.46 0.32 0.27 0.33 0.41 0.46 0.45 0.37 0.33 0.33 0.34 0.33 0.29 0.30 0.31
0.23 0.21 0.17 0.15 0.15 0.16 0.18 0.20 0.15 0.13 0.10 0.06 0.05 0.06 0.07 0.09 0.14 0.19 0.14 0.10 0.08 0.06 0.02 0.01 0.00 0.00 0.00 0.00 0.01 0.02 0.02 0.03 0.05 0.08 0.11 0.13 0.14 0.13 0.11 0.12 0.14 0.17 0.22 0.28 0.34 0.37 0.38 0.38 0.37 0.36 0.36 0.38 0.39 0.40 0.43 0.52 0.59 0.58 0.63 0.73 0.75 0.63 0.53 0.51 0.50 0.52 0.56 0.58 0.56 0.49 0.39 0.28 0.25 0.26 0.30 0.37 0.39 0.36 0.32 0.33 0.34 0.33 0.33 0.34 0.35